1487127601.02,4224,11.94,74798.3,-1.07,-27.89,-28.05,0,*6D
1487127602.23,4225,11.88,74802.3,-1.07,-27.77,-27.93,0,*6D
1487127603.48,4226,11.88,74800.0,-1.05,-27.83,-27.89,0,*6C
1487127604.76,4227,11.88,74800.8,-1.01,-27.45,-27.61,0,*65
1487127605.96,4228,11.94,74802.3,-1.03,-27.67,-27.71,0,*69
1487127607.19,4229,11.88,74798.0,-1.03,-27.83,-27.89,0,*65
1487127608.42,4230,11.88,74792.3,-1.03,-27.67,-27.83,0,*6D
1487127609.62,4231,11.88,74794.0,-1.03,-27.89,-27.89,0,*66
1487127610.85,4232,11.94,74796.8,-1.03,-27.89,-27.99,0,*64
1487127612.08,4233,11.94,74798.0,-1.03,-27.89,-27.99,0,*65
1487127613.31,4234,11.94,74802.8,-1.03,-28.05,-28.15,0,*62
1487127614.52,4235,11.94,74802.0,-1.03,-28.15,-28.31,0,*64
1487127615.75,4236,11.94,74800.8,-1.03,-28.05,-28.15,0,*60
1487127616.99,4237,11.94,74798.3,-1.03,-28.15,-28.21,0,*67
1487127618.21,4238,11.94,74798.8,-1.05,-28.15,-28.15,0,*69
1487127619.44,4239,11.88,74792.5,-1.07,-27.89,-28.09,0,*6D
1487127620.72,4240,11.94,74796.0,-1.05,-27.99,-28.05,0,*6C
1487127622.0,4241,11.88,74798.3,-1.05,-27.99,-27.99,0,*67
1487127623.28,4242,11.88,74798.8,-1.05,-27.99,-27.99,0,*64
1487127624.53,4243,11.88,74796.3,-1.05,-27.89,-28.05,0,*6E
1487127625.79,4244,11.88,74798.5,-1.05,-27.89,-27.99,0,*63
1487127627.04,4245,11.94,74796.0,-1.05,-27.89,-28.05,0,*68
1487127628.29,4246,11.88,74798.3,-1.05,-27.89,-28.05,0,*6B
1487127629.52,4247,11.88,74798.5,-1.07,-27.71,-27.83,0,*6E
1487127630.73,4248,11.88,74792.0,-1.07,-27.77,-27.93,0,*66
1487127632.0,4249,11.88,74790.5,-1.05,-27.83,-27.99,0,*64
1487127633.23,4250,11.88,74794.5,-1.05,-27.71,-27.89,0,*60
1487127634.46,4251,11.94,74800.3,-1.05,-27.71,-27.89,0,*61
1487127635.71,4252,11.88,74798.5,-1.05,-27.99,-28.15,0,*6E
1487127636.97,4253,11.94,74798.5,-1.07,-28.09,-28.21,0,*6C
1487127638.25,4254,11.88,74796.8,-1.05,-28.05,-28.21,0,*65
1487127639.51,4255,11.88,74792.8,-1.05,-27.89,-28.05,0,*69
1487127640.79,4256,11.94,74798.3,-1.05,-27.99,-28.05,0,*6B
1487127642.02,4257,11.88,74794.0,-1.05,-28.15,-28.31,0,*66
1487127643.25,4258,11.88,74796.0,-1.07,-27.89,-28.05,0,*66
1487127644.46,4259,11.88,74796.0,-1.07,-27.67,-27.89,0,*6C
1487127645.69,4260,11.94,74798.3,-1.07,-27.89,-28.05,0,*6D
1487127646.92,4261,11.94,74798.8,-1.07,-27.93,-28.09,0,*6B
1487127648.16,4262,11.88,74798.3,-1.07,-27.89,-28.05,0,*6F
1487127649.44,4263,11.94,74796.5,-1.05,-27.61,-27.83,0,*6B
1487127650.71,4264,11.88,74792.0,-1.05,-27.83,-27.99,0,*6B
1487127651.97,4265,11.88,74792.5,-1.07,-28.05,-28.09,0,*6F
1487127653.25,4266,11.94,74798.0,-1.05,-27.83,-27.99,0,*69
1487127654.48,4267,11.94,74796.8,-1.07,-27.89,-28.05,0,*6A
1487127655.72,4268,11.94,74796.5,-1.07,-27.77,-28.05,0,*64
1487127656.94,4269,11.88,74792.8,-1.07,-27.89,-28.09,0,*68
1487127658.18,4270,11.88,74792.8,-1.07,-27.77,-28.05,0,*6D
1487127659.41,4271,11.94,74798.0,-1.07,-27.89,-28.05,0,*6D
1487127660.64,4272,11.94,74798.0,-1.07,-27.89,-28.09,0,*62
1487127661.85,4273,11.88,74794.3,-1.07,-27.51,-27.71,0,*66
1487127663.08,4274,11.88,74792.0,-1.05,-27.67,-27.89,0,*61
1487127664.34,4275,11.94,74796.8,-1.07,-28.05,-28.21,0,*64
1487127665.62,4276,11.88,74794.0,-1.05,-27.83,-28.05,0,*62
1487127666.87,4277,11.88,74794.8,-1.05,-27.45,-27.89,0,*62
1487127668.07,4278,11.88,74794.5,-1.07,-27.71,-27.93,0,*63
1487127669.34,4279,11.88,74792.8,-1.07,-28.05,-28.25,0,*6C
1487127670.6,4280,11.88,74794.8,-1.07,-28.05,-28.25,0,*6A
1487127671.83,4281,11.88,74792.3,-1.05,-27.67,-27.89,0,*6B
1487127673.06,4282,11.88,74792.5,-1.07,-27.89,-28.09,0,*6D
1487127674.27,4283,11.94,74798.3,-1.07,-27.67,-27.93,0,*60
1487127675.55,4284,11.94,74798.0,-1.05,-27.99,-28.21,0,*62
1487127676.77,4285,11.88,74794.3,-1.05,-28.15,-28.37,0,*6F
1487127678.0,4286,11.88,74794.5,-1.05,-28.15,-28.31,0,*6A
1487127679.22,4287,11.94,74796.0,-1.05,-28.15,-28.37,0,*6D
1487127680.49,4288,11.94,74802.0,-1.07,-28.21,-28.25,0,*64
1487127681.74,4289,11.88,74796.5,-1.05,-27.89,-28.21,0,*6E
1487127682.97,4290,11.88,74796.8,-1.07,-28.37,-28.43,0,*6A
1487127684.21,4291,11.94,74802.3,-1.07,-27.77,-28.05,0,*62
1487127685.44,4292,11.88,74796.5,-1.07,-27.93,-28.09,0,*67
1487127686.69,4293,11.94,74796.5,-1.05,-28.21,-28.37,0,*6F
1487127687.95,4294,11.88,74794.8,-1.07,-28.21,-28.43,0,*69
1487127689.21,4295,11.88,74796.5,-1.05,-28.15,-28.21,0,*69
1487127690.44,4296,11.94,74800.5,-1.07,-28.25,-28.37,0,*6C
1487127691.7,4297,11.88,74796.3,-1.07,-28.09,-28.25,0,*60
1487127692.9,4298,11.88,74798.5,-1.07,-27.89,-27.93,0,*6A
1487127694.16,4299,11.94,74800.8,-1.07,-28.05,-28.09,0,*6C
1487127695.37,4300,11.88,74798.5,-1.07,-28.15,-28.31,0,*67
1487127696.6,4301,11.88,74794.8,-1.07,-28.37,-28.43,0,*63
1487127697.84,4302,11.94,74798.8,-1.07,-28.37,-28.59,0,*6B
1487127699.07,4303,11.88,74798.8,-1.07,-28.37,-28.59,0,*6A
1487127700.3,4304,11.88,74794.8,-1.11,-28.25,-28.53,0,*63
1487127701.56,4305,11.94,74802.0,-1.11,-28.25,-28.43,0,*63
1487127702.82,4306,11.88,74798.0,-1.11,-28.09,-28.21,0,*6A
1487127704.07,4307,11.94,74800.3,-1.11,-28.05,-28.25,0,*63
1487127705.33,4308,11.94,74802.5,-1.11,-28.05,-28.21,0,*68
1487127706.56,4309,11.88,74800.5,-1.11,-27.93,-28.09,0,*63
1487127707.8,4310,11.88,74796.5,-1.11,-27.77,-28.05,0,*6D
1487127709.05,4311,11.88,74796.5,-1.11,-28.09,-28.09,0,*66
1487127710.31,4312,11.94,74798.5,-1.07,-28.09,-28.25,0,*6C
1487127711.56,4313,11.88,74796.8,-1.07,-28.43,-28.43,0,*63
1487127712.82,4314,11.94,74798.3,-1.07,-28.09,-28.25,0,*6A
1487127714.05,4315,11.94,74800.3,-1.07,-28.25,-28.37,0,*66
1487127715.31,4316,11.88,74798.0,-1.07,-28.25,-28.43,0,*66
1487127716.57,4317,11.94,74796.8,-1.13,-27.99,-28.15,0,*69
1487127717.83,4318,11.94,74798.8,-1.11,-28.21,-28.25,0,*6B
1487127719.09,4319,11.94,74792.5,-1.07,-28.21,-28.25,0,*6D
1487127720.33,4320,11.94,74794.5,-1.07,-28.25,-28.53,0,*62
1487127721.56,4321,11.88,74792.8,-1.07,-28.37,-28.43,0,*61
1487127722.79,4322,11.88,74792.5,-1.07,-28.25,-28.53,0,*60
1487127724.05,4323,11.88,74788.5,-1.11,-28.21,-28.43,0,*63
1487127725.28,4324,11.94,74794.5,-1.11,-28.25,-28.37,0,*63
1487127726.51,4325,11.88,74792.8,-1.11,-27.93,-28.21,0,*67
1487127727.76,4326,11.94,74794.8,-1.13,-28.15,-28.43,0,*63
1487127729.02,4327,11.88,74794.3,-1.11,-28.25,-28.43,0,*63
1487127730.23,4328,11.88,74796.0,-1.07,-28.37,-28.53,0,*69
1487127731.46,4329,11.88,74792.5,-1.11,-28.25,-28.37,0,*6E
1487127732.71,4330,11.94,74796.5,-1.13,-28.31,-28.47,0,*66
1487127733.94,4331,11.88,74794.8,-1.11,-27.93,-28.05,0,*64
1487127735.23,4332,11.88,74796.8,-1.13,-28.09,-28.25,0,*6B
1487127736.51,4333,11.88,74794.3,-1.13,-28.25,-28.25,0,*64
1487127737.76,4334,11.88,74796.5,-1.13,-28.31,-28.43,0,*66
1487127739.02,4335,11.88,74798.5,-1.13,-28.15,-28.25,0,*61
1487127740.28,4336,11.94,74798.0,-1.13,-28.09,-28.31,0,*6A
1487127741.54,4337,11.88,74792.5,-1.13,-28.25,-28.31,0,*65
1487127742.77,4338,11.94,74798.5,-1.11,-28.25,-28.37,0,*6E
1487127744.0,4339,11.88,74796.5,-1.11,-28.37,-28.43,0,*6F
1487127745.28,4340,11.88,74796.5,-1.13,-28.43,-28.47,0,*64
1487127746.53,4341,11.88,74796.5,-1.11,-28.25,-28.43,0,*63
1487127747.79,4342,11.94,74798.0,-1.13,-28.09,-28.31,0,*69
1487127749.07,4343,11.94,74798.5,-1.13,-28.25,-28.43,0,*63
1487127750.3,4344,11.88,74796.3,-1.11,-28.21,-28.37,0,*61
1487127751.57,4345,11.94,74796.3,-1.07,-28.05,-28.21,0,*66
1487127752.85,4346,11.94,74798.8,-1.13,-28.25,-28.25,0,*66
1487127754.11,4347,11.94,74798.0,-1.13,-27.93,-28.09,0,*6B
1487127755.37,4348,11.88,74796.3,-1.13,-27.99,-28.15,0,*63
1487127756.62,4349,11.94,74796.0,-1.11,-28.05,-28.09,0,*67
1487127757.83,4350,11.88,74796.0,-1.11,-27.71,-27.93,0,*6F
1487127759.08,4351,11.94,74798.0,-1.13,-27.77,-27.99,0,*60
1487127760.36,4352,11.94,74796.0,-1.13,-27.99,-28.09,0,*65
1487127761.62,4353,11.94,74794.8,-1.13,-27.77,-27.99,0,*62
1487127762.85,4354,11.88,74792.0,-1.11,-27.77,-28.05,0,*6D
1487127764.11,4355,11.88,74794.3,-1.11,-28.05,-28.09,0,*6A
1487127765.34,4356,11.94,74792.8,-1.11,-27.93,-28.09,0,*69
1487127766.6,4357,11.94,74796.0,-1.13,-27.99,-28.15,0,*6D
1487127767.8,4358,11.88,74792.8,-1.11,-27.93,-28.15,0,*6A
1487127769.0,4359,11.88,74792.3,-1.11,-27.71,-27.93,0,*66
1487127770.21,4360,11.94,74798.3,-1.11,-27.71,-27.89,0,*67
1487127771.44,4361,11.88,74792.8,-1.11,-27.93,-28.05,0,*61
1487127772.68,4362,11.88,74796.8,-1.07,-27.93,-28.21,0,*63
1487127773.88,4363,11.94,74798.3,-1.11,-27.71,-27.89,0,*64
1487127775.09,4364,11.94,74794.5,-1.11,-27.67,-27.89,0,*64
1487127776.29,4365,11.94,74798.0,-1.11,-27.71,-27.77,0,*63
1487127777.49,4366,11.88,74796.3,-1.11,-27.71,-27.93,0,*6A
1487127778.74,4367,11.88,74794.8,-1.11,-28.05,-28.09,0,*6B
1487127780.0,4368,11.94,74796.3,-1.11,-28.09,-28.25,0,*66
1487127781.26,4369,11.94,74792.8,-1.11,-28.21,-28.25,0,*6D
1487127782.49,4370,11.88,74792.0,-1.11,-28.21,-28.37,0,*66
1487127783.75,4371,11.88,74792.0,-1.13,-28.09,-28.15,0,*6F
1487127784.99,4372,11.88,74790.0,-1.11,-27.77,-28.05,0,*69
1487127786.19,4373,11.88,74790.8,-1.11,-27.77,-27.89,0,*63
1487127787.42,4374,11.94,74794.0,-1.11,-27.89,-28.05,0,*6E
1487127788.65,4375,11.94,74798.3,-1.11,-27.89,-28.05,0,*6F
1487127789.88,4376,11.94,74796.8,-1.11,-27.89,-28.09,0,*60
1487127791.08,4377,11.88,74794.0,-1.11,-27.77,-27.93,0,*6C
1487127792.28,4378,11.88,74794.0,-1.11,-27.89,-27.93,0,*62
1487127793.48,4379,11.88,74792.3,-1.11,-27.67,-27.77,0,*69
1487127794.69,4380,11.88,74792.5,-1.07,-27.77,-27.93,0,*63
1487127795.95,4381,11.94,74798.0,-1.07,-28.05,-28.25,0,*6A
1487127797.15,4382,11.88,74792.8,-1.11,-27.55,-27.77,0,*6C
1487127798.35,4383,11.94,74792.8,-1.11,-27.67,-27.77,0,*6C
1487127799.58,4384,11.94,74794.5,-1.07,-27.89,-28.09,0,*6A
1487127800.84,4385,11.94,74796.0,-1.07,-28.05,-28.21,0,*6A
1487127802.1,4386,11.88,74798.5,-1.07,-28.09,-28.21,0,*65
1487127803.37,4387,11.88,74796.0,-1.07,-28.05,-28.05,0,*6E
1487127804.6,4388,11.88,74798.5,-1.11,-27.89,-28.05,0,*6D
1487127805.8,4389,11.88,74796.5,-1.11,-27.71,-27.93,0,*6B
1487127807.01,4390,11.88,74798.3,-1.07,-27.67,-27.89,0,*68
1487127808.26,4391,11.88,74796.0,-1.05,-27.89,-28.05,0,*60
1487127809.52,4392,11.94,74796.0,-1.07,-28.21,-28.21,0,*6A
1487127810.76,4393,11.94,74798.5,-1.07,-27.93,-28.05,0,*6B
1487127811.99,4394,11.94,74798.3,-1.07,-27.93,-28.09,0,*60
1487127813.22,4395,11.94,74796.3,-1.07,-27.89,-28.09,0,*6A
1487127814.42,4396,11.88,74798.3,-1.07,-27.77,-27.93,0,*64
1487127815.67,4397,11.88,74796.3,-1.05,-27.83,-27.89,0,*67
1487127816.88,4398,11.88,74794.8,-1.07,-27.71,-27.89,0,*67
1487127818.08,4399,11.88,74794.5,-1.07,-27.77,-27.93,0,*6B
1487127819.31,4400,11.94,74794.8,-1.05,-27.89,-28.15,0,*6E
1487127820.54,4401,11.88,74794.0,-1.05,-27.71,-27.89,0,*62
1487127821.75,4402,11.88,74794.5,-1.07,-27.77,-27.93,0,*6E
1487127822.95,4403,11.94,74798.3,-1.07,-27.55,-27.77,0,*65
1487127824.15,4404,11.88,74792.0,-1.07,-27.71,-27.89,0,*65
1487127825.36,4405,11.88,74794.8,-1.07,-27.77,-27.89,0,*62
1487127826.62,4406,11.88,74796.8,-1.05,-27.67,-27.83,0,*68
1487127827.88,4407,11.88,74798.0,-1.05,-27.61,-27.67,0,*65
1487127829.08,4408,11.94,74798.0,-1.07,-27.51,-27.51,0,*6E
1487127830.31,4409,11.88,74798.3,-1.07,-27.45,-27.55,0,*6E
1487127831.57,4410,11.88,74798.8,-1.05,-27.45,-27.67,0,*65
1487127832.77,4411,11.88,74798.5,-1.03,-27.51,-27.71,0,*60
1487127834.05,4412,11.88,74796.8,-1.05,-27.61,-27.83,0,*6B
1487127835.34,4413,11.88,74800.3,-1.05,-27.61,-27.83,0,*6A
1487127836.6,4414,11.94,74800.3,-1.03,-27.61,-27.83,0,*6B
1487127837.86,4415,11.88,74802.3,-1.01,-27.61,-27.71,0,*65
1487127839.14,4416,11.88,74800.0,-1.01,-27.39,-27.61,0,*6A
1487127840.35,4417,11.88,74800.0,-1.03,-27.67,-27.89,0,*64
1487127841.6,4418,11.94,74800.3,-1.03,-27.83,-28.05,0,*6A
1487127842.83,4419,11.94,74800.3,-1.03,-27.71,-27.99,0,*6C
1487127844.08,4420,11.88,74800.5,-1.03,-27.99,-28.21,0,*6C
1487127845.32,4421,11.88,74802.3,-1.01,-27.93,-28.15,0,*62
1487127846.59,4422,11.88,74802.3,-1.01,-27.83,-27.99,0,*6B
1487127847.85,4423,11.88,74796.0,-1.03,-27.99,-28.21,0,*6F
1487127849.08,4424,11.88,74798.5,-1.03,-27.99,-28.31,0,*69
1487127850.34,4425,11.88,74800.5,-1.03,-28.21,-28.47,0,*65
1487127851.57,4426,11.94,74802.0,-1.03,-28.21,-28.37,0,*61
1487127852.77,4427,11.94,74800.3,-1.03,-28.15,-28.31,0,*61
1487127853.97,4428,11.88,74798.3,-1.03,-28.15,-28.53,0,*6A
1487127855.2,4429,11.88,74802.3,-1.03,-28.31,-28.47,0,*68
1487127856.43,4430,11.94,74802.8,-1.03,-27.89,-28.05,0,*6A
1487127857.7,4431,11.88,74796.3,-1.05,-27.83,-28.05,0,*67
1487127858.93,4432,11.88,74796.5,-1.05,-28.15,-28.37,0,*65
1487127860.18,4433,11.94,74800.5,-1.05,-28.21,-28.37,0,*63
1487127861.41,4434,11.88,74800.5,-1.05,-28.15,-28.37,0,*63
1487127862.69,4435,11.88,74796.8,-1.05,-28.21,-28.47,0,*62
1487127863.96,4436,11.88,74798.8,-1.05,-28.21,-28.47,0,*61
1487127865.2,4437,11.88,74802.3,-1.07,-28.37,-28.59,0,*6A
1487127866.43,4438,11.88,74796.0,-1.05,-27.89,-28.15,0,*65
1487127867.67,4439,11.88,74798.0,-1.07,-27.93,-28.21,0,*6A
1487127868.92,4440,11.88,74798.3,-1.05,-27.99,-28.31,0,*6D
1487127870.18,4441,11.88,74800.0,-1.07,-28.21,-28.43,0,*67
1487127871.39,4442,11.88,74798.8,-1.07,-28.37,-28.53,0,*62
1487127872.64,4443,11.88,74798.8,-1.05,-28.21,-28.37,0,*64
1487127873.87,4444,11.88,74802.5,-1.07,-28.09,-28.37,0,*6B
1487127875.14,4445,11.88,74800.0,-1.07,-28.05,-28.21,0,*61
1487127876.4,4446,11.88,74798.3,-1.07,-28.25,-28.59,0,*6F
1487127877.68,4447,11.94,74802.8,-1.05,-28.05,-28.21,0,*61
1487127878.91,4448,11.88,74796.5,-1.07,-27.77,-28.05,0,*60
1487127880.17,4449,11.88,74798.0,-1.07,-28.09,-28.43,0,*65
1487127881.41,4450,11.94,74800.3,-1.07,-27.93,-28.21,0,*65
1487127882.64,4451,11.88,74798.5,-1.07,-27.89,-28.21,0,*6F
1487127883.9,4452,11.88,74802.3,-1.07,-28.21,-28.43,0,*65
1487127885.11,4453,11.88,74800.8,-1.07,-27.89,-28.15,0,*6A
1487127886.36,4454,11.88,74804.5,-1.07,-28.09,-28.43,0,*69
1487127887.61,4455,11.88,74802.3,-1.05,-27.99,-28.31,0,*69
1487127888.88,4456,11.88,74804.0,-1.07,-28.05,-28.21,0,*63
1487127890.1,4457,11.88,74800.0,-1.05,-28.15,-28.37,0,*66
1487127891.34,4458,11.88,74800.8,-1.07,-28.25,-28.53,0,*6A
1487127892.57,4459,11.88,74800.0,-1.07,-27.71,-28.05,0,*66
1487127893.82,4460,11.88,74798.8,-1.07,-28.09,-28.43,0,*6E
1487127895.09,4461,11.94,74804.8,-1.07,-28.05,-28.25,0,*63
1487127896.35,4462,11.88,74802.3,-1.07,-28.09,-28.25,0,*6C
1487127897.58,4463,11.88,74802.8,-1.07,-28.25,-28.53,0,*62
1487127898.84,4464,11.88,74804.5,-1.07,-28.21,-28.43,0,*60
1487127900.1,4465,11.88,74802.8,-1.07,-28.25,-28.43,0,*65
1487127901.33,4466,11.94,74804.8,-1.07,-28.25,-28.53,0,*67
1487127902.56,4467,11.88,74806.5,-1.05,-28.15,-28.31,0,*63
1487127903.79,4468,11.88,74806.5,-1.07,-28.21,-28.37,0,*6F
1487127905.05,4469,11.88,74802.0,-1.07,-28.05,-28.09,0,*65
1487127906.31,4470,11.94,74804.0,-1.11,-28.25,-28.43,0,*66
1487127907.54,4471,11.88,74800.5,-1.07,-28.25,-28.53,0,*61
1487127908.78,4472,11.94,74802.5,-1.07,-28.25,-28.53,0,*62
1487127910.01,4473,11.94,74802.8,-1.11,-27.93,-28.05,0,*65
1487127911.24,4474,11.94,74806.8,-1.11,-27.93,-28.21,0,*64
1487127912.47,4475,11.88,74800.3,-1.11,-27.89,-28.09,0,*64
1487127913.73,4476,11.94,74804.8,-1.07,-28.21,-28.43,0,*63
1487127914.98,4477,11.88,74802.0,-1.11,-28.09,-28.25,0,*6F
1487127916.21,4478,11.88,74802.0,-1.07,-27.89,-28.09,0,*6E
1487127917.44,4479,11.88,74804.0,-1.11,-27.93,-28.09,0,*63
1487127918.7,4480,11.88,74802.8,-1.11,-28.21,-28.43,0,*6D
1487127919.93,4481,11.88,74804.0,-1.07,-28.21,-28.53,0,*6A
1487127921.17,4482,11.88,74800.8,-1.07,-28.37,-28.59,0,*64
1487127922.4,4483,11.88,74798.0,-1.11,-28.25,-28.53,0,*6B
1487127923.63,4484,11.88,74806.0,-1.07,-28.37,-28.43,0,*69
1487127924.86,4485,11.88,74802.3,-1.11,-28.37,-28.59,0,*64
1487127926.1,4486,11.88,74798.3,-1.11,-28.25,-28.53,0,*6E
1487127927.36,4487,11.88,74804.5,-1.11,-28.05,-28.25,0,*6C
1487127928.59,4488,11.88,74806.0,-1.11,-28.25,-28.53,0,*60
1487127929.84,4489,11.88,74802.3,-1.13,-28.31,-28.47,0,*63
1487127931.1,4490,11.88,74804.3,-1.11,-28.05,-28.25,0,*6A
1487127932.36,4491,11.88,74804.5,-1.11,-28.09,-28.25,0,*67
1487127933.58,4492,11.88,74804.0,-1.11,-28.31,-28.47,0,*6B
1487127934.79,4493,11.88,74800.5,-1.11,-28.37,-28.53,0,*69
1487127936.06,4494,11.88,74802.3,-1.13,-28.43,-28.47,0,*6A
1487127937.29,4495,11.88,74800.5,-1.11,-28.37,-28.43,0,*6E
1487127938.54,4496,11.88,74800.0,-1.11,-28.25,-28.43,0,*6E
1487127939.8,4497,11.88,74802.3,-1.13,-28.31,-28.47,0,*6C
1487127941.03,4498,11.88,74802.3,-1.11,-28.25,-28.37,0,*63
1487127942.31,4499,11.88,74800.3,-1.13,-28.25,-28.43,0,*63
1487127943.54,4500,11.88,74802.8,-1.13,-28.15,-28.31,0,*64
1487127944.79,4501,11.88,74798.8,-1.13,-28.31,-28.43,0,*66
1487127946.07,4502,11.88,74796.0,-1.13,-27.83,-27.99,0,*6B
1487127947.3,4503,11.88,74798.0,-1.13,-28.15,-28.31,0,*67
1487127948.57,4504,11.88,74800.3,-1.13,-28.09,-28.31,0,*6D
1487127949.82,4505,11.88,74802.3,-1.13,-28.15,-28.43,0,*64
1487127951.07,4506,11.88,74802.0,-1.13,-28.31,-28.47,0,*65
1487127952.35,4507,11.88,74800.0,-1.13,-28.09,-28.25,0,*6B
1487127953.61,4508,11.88,74804.5,-1.13,-28.09,-28.15,0,*67
1487127954.87,4509,11.88,74800.0,-1.13,-27.99,-28.15,0,*60
1487127956.12,4510,11.94,74806.0,-1.15,-27.83,-28.09,0,*68
1487127957.35,4511,11.88,74800.3,-1.15,-27.77,-28.09,0,*62
1487127958.59,4512,11.88,74800.5,-1.13,-27.93,-28.15,0,*60
1487127959.85,4513,11.88,74798.5,-1.13,-27.99,-28.15,0,*6B
1487127961.13,4514,11.88,74800.3,-1.13,-28.09,-28.25,0,*69
1487127962.39,4515,11.88,74802.3,-1.13,-28.25,-28.31,0,*63
1487127963.63,4516,11.88,74800.0,-1.13,-28.15,-28.31,0,*63
1487127964.88,4517,11.88,74800.3,-1.13,-28.31,-28.47,0,*65
1487127966.16,4518,11.88,74802.5,-1.13,-28.25,-28.43,0,*6B
1487127967.44,4519,11.88,74800.0,-1.13,-28.43,-28.59,0,*61
1487127968.65,4520,11.88,74802.8,-1.15,-28.15,-28.31,0,*60
1487127969.9,4521,11.88,74796.5,-1.15,-28.43,-28.59,0,*6C
1487127971.16,4522,11.88,74800.0,-1.15,-28.59,-28.63,0,*6D
1487127972.4,4523,11.88,74802.3,-1.15,-28.31,-28.59,0,*6B
1487127973.62,4524,11.88,74800.0,-1.15,-28.31,-28.47,0,*63
1487127974.85,4525,11.88,74804.3,-1.17,-28.21,-28.37,0,*66
1487127976.04,4526,11.88,74800.3,-1.17,-28.31,-28.37,0,*64
1487127977.27,4527,11.88,74804.3,-1.15,-28.15,-28.43,0,*62
1487127978.5,4528,11.88,74804.8,-1.15,-28.15,-28.43,0,*6D
1487127979.71,4529,11.88,74804.0,-1.15,-28.15,-28.31,0,*69
1487127980.97,4530,11.88,74802.3,-1.15,-28.09,-28.25,0,*69
1487127982.17,4531,11.88,74802.5,-1.17,-28.37,-28.37,0,*64
1487127983.39,4532,11.88,74798.8,-1.15,-28.31,-28.47,0,*64
1487127984.6,4533,11.88,74800.3,-1.15,-28.15,-28.31,0,*62
1487127985.8,4534,11.88,74802.5,-1.17,-28.31,-28.53,0,*65
1487127987.03,4535,11.88,74800.5,-1.15,-28.15,-28.25,0,*61
1487127988.25,4536,11.88,74800.3,-1.17,-27.99,-28.15,0,*68
1487127989.48,4537,11.88,74802.5,-1.15,-28.15,-28.43,0,*63
1487127990.71,4538,11.88,74802.3,-1.15,-28.15,-28.47,0,*68
1487127991.95,4539,11.88,74802.5,-1.15,-28.31,-28.63,0,*69
1487127993.2,4540,11.94,74806.8,-1.15,-28.43,-28.63,0,*62
1487127994.46,4541,11.88,74802.0,-1.15,-28.43,-28.63,0,*63
1487127995.72,4542,11.88,74804.0,-1.15,-28.43,-28.59,0,*69
1487127996.93,4543,11.88,74804.8,-1.17,-28.31,-28.47,0,*60
1487127998.13,4544,11.88,74806.3,-1.17,-28.53,-28.53,0,*66
1487127999.35,4545,11.88,74802.0,-1.17,-28.47,-28.53,0,*62
1487128000.58,4546,11.88,74800.8,-1.17,-28.37,-28.63,0,*65
1487128001.78,4547,11.88,74798.8,-1.17,-27.89,-28.15,0,*6F
1487128003.01,4548,11.88,74798.5,-1.17,-28.05,-28.15,0,*6B
1487128004.2,4549,11.88,74796.0,-1.17,-28.15,-28.37,0,*6B
1487128005.43,4550,11.88,74796.8,-1.15,-27.99,-28.15,0,*6A
1487128006.66,4551,11.88,74798.8,-1.17,-27.77,-28.05,0,*68
1487128007.87,4552,11.88,74796.3,-1.15,-28.15,-28.15,0,*63
1487128009.1,4553,11.88,74800.5,-1.17,-28.21,-28.31,0,*61
1487128010.35,4554,11.88,74804.3,-1.17,-28.05,-28.21,0,*61
1487128011.61,4555,11.88,74798.8,-1.15,-28.09,-28.25,0,*6A
1487128012.84,4556,11.88,74800.5,-1.17,-28.21,-28.37,0,*62
1487128014.09,4557,11.88,74800.3,-1.17,-28.21,-28.21,0,*64
1487128015.28,4558,11.88,74800.5,-1.17,-27.89,-27.89,0,*6B
1487128016.54,4559,11.88,74800.5,-1.15,-28.09,-28.25,0,*66
1487128017.77,4560,11.88,74802.8,-1.17,-27.77,-27.83,0,*6B
1487128018.98,4561,11.88,74802.8,-1.17,-27.83,-27.93,0,*60
1487128020.2,4562,11.88,74798.8,-1.17,-27.61,-27.77,0,*65
1487128021.44,4563,11.88,74800.0,-1.15,-27.61,-27.77,0,*66
1487128022.67,4564,11.88,74800.5,-1.17,-28.05,-28.15,0,*65
1487128023.91,4565,11.88,74802.5,-1.15,-27.93,-28.09,0,*6B
1487128025.13,4566,11.88,74800.3,-1.17,-27.77,-27.99,0,*66
1487128026.38,4567,11.88,74800.0,-1.15,-27.83,-27.99,0,*6E
1487128027.61,4568,11.88,74800.0,-1.15,-27.93,-28.09,0,*66
1487128028.87,4569,11.88,74802.8,-1.17,-28.05,-28.21,0,*6F
1487128030.06,4570,11.88,74802.3,-1.17,-27.67,-27.77,0,*60
1487128031.29,4571,11.88,74802.3,-1.15,-27.71,-27.83,0,*6F
1487128032.55,4572,11.88,74806.0,-1.15,-27.83,-27.99,0,*6A
1487128033.77,4573,11.88,74804.3,-1.17,-27.99,-28.15,0,*69
1487128035.03,4574,11.88,74802.3,-1.15,-27.83,-27.99,0,*6C
1487128036.26,4575,11.88,74806.0,-1.15,-27.99,-28.15,0,*6D
1487128037.46,4576,11.88,74804.0,-1.17,-28.15,-28.15,0,*67
1487128038.67,4577,11.88,74806.0,-1.15,-27.71,-27.71,0,*64
1487128039.87,4578,11.88,74800.0,-1.15,-27.77,-27.93,0,*61
1487128041.13,4579,11.88,74802.0,-1.15,-27.83,-27.99,0,*61
1487128042.35,4580,11.88,74800.8,-1.17,-27.99,-28.15,0,*65
1487128043.56,4581,11.88,74804.3,-1.15,-27.93,-28.15,0,*6C
1487128044.82,4582,11.88,74806.8,-1.17,-28.05,-28.21,0,*6A
1487128046.05,4583,11.88,74800.8,-1.15,-28.15,-28.25,0,*6C
1487128047.28,4584,11.88,74802.3,-1.15,-27.77,-27.99,0,*68
1487128048.52,4585,11.88,74800.8,-1.15,-27.93,-27.99,0,*63
1487128049.74,4586,11.88,74802.3,-1.17,-27.99,-28.15,0,*63
1487128050.95,4587,11.88,74800.8,-1.15,-27.77,-27.93,0,*61
1487128052.17,4588,11.88,74804.5,-1.17,-27.89,-28.21,0,*6B
1487128053.4,4589,11.88,74802.8,-1.17,-28.05,-28.15,0,*66
1487128054.62,4590,11.88,74804.5,-1.17,-27.99,-28.15,0,*64
1487128055.83,4591,11.88,74802.3,-1.15,-27.55,-27.71,0,*6A
1487128057.03,4592,11.88,74802.0,-1.15,-27.71,-27.93,0,*63
1487128058.29,4593,11.88,74802.3,-1.15,-27.83,-27.99,0,*65
1487128059.52,4594,11.88,74800.5,-1.15,-27.93,-28.09,0,*65
1487128060.75,4595,11.88,74802.0,-1.15,-27.93,-28.09,0,*64
1487128061.97,4596,11.88,74802.0,-1.17,-27.93,-28.09,0,*65
1487128063.23,4597,11.88,74802.5,-1.15,-27.83,-27.99,0,*61
1487128064.45,4598,11.88,74796.5,-1.17,-27.77,-27.99,0,*67
1487128065.66,4599,11.88,74796.8,-1.15,-27.51,-27.51,0,*64
1487128066.88,4600,11.88,74800.8,-1.15,-27.83,-27.93,0,*66
1487128068.12,4601,11.88,74800.0,-1.15,-27.93,-28.09,0,*6A
1487128069.35,4602,11.88,74804.3,-1.15,-27.99,-28.15,0,*6E
1487128070.61,4603,11.88,74800.8,-1.15,-27.99,-28.09,0,*62
1487128071.84,4604,11.88,74802.3,-1.15,-27.71,-27.99,0,*65
1487128073.09,4605,11.88,74800.0,-1.17,-28.09,-28.21,0,*6A
1487128074.29,4606,11.88,74804.8,-1.15,-27.71,-27.77,0,*67
1487128075.55,4607,11.88,74804.3,-1.17,-28.05,-28.21,0,*64
1487128076.78,4608,11.88,74802.8,-1.15,-28.09,-28.15,0,*62
1487128078.02,4609,11.88,74802.0,-1.15,-27.77,-27.99,0,*6E
1487128079.25,4610,11.88,74804.0,-1.15,-27.93,-28.09,0,*6A
1487128080.51,4611,11.88,74804.3,-1.15,-28.09,-28.25,0,*69
1487128081.74,4612,11.88,74802.5,-1.15,-27.93,-27.99,0,*6E
1487128082.96,4613,11.88,74806.0,-1.15,-27.93,-28.15,0,*64
1487128084.15,4614,11.88,74804.8,-1.17,-27.89,-27.89,0,*60
1487128085.39,4615,11.88,74806.8,-1.15,-28.09,-28.15,0,*6E
1487128086.65,4616,11.88,74804.0,-1.15,-28.09,-28.25,0,*6E
1487128087.85,4617,11.88,74802.5,-1.15,-27.55,-27.77,0,*61
1487128089.05,4618,11.88,74800.8,-1.15,-27.55,-27.77,0,*6E
1487128090.31,4619,11.88,74808.5,-1.15,-27.99,-28.25,0,*67
1487128091.52,4620,11.88,74804.0,-1.15,-27.93,-28.15,0,*64
1487128092.73,4621,11.88,74804.0,-1.15,-27.71,-27.77,0,*62
1487128093.93,4622,11.88,74804.3,-1.15,-27.71,-27.77,0,*61
1487128095.16,4623,11.88,74800.0,-1.15,-27.71,-27.83,0,*6B
1487128096.4,4624,11.94,74804.3,-1.15,-27.61,-27.93,0,*6C
1487128097.63,4625,11.88,74804.5,-1.13,-27.93,-28.15,0,*67
1487128098.87,4626,11.88,74800.3,-1.15,-27.93,-27.99,0,*69
1487128100.13,4627,11.88,74800.5,-1.13,-27.23,-27.29,0,*6E
1487128101.35,4628,11.88,74804.3,-1.13,-27.71,-27.93,0,*67
1487128102.61,4629,11.88,74804.3,-1.13,-27.71,-27.99,0,*6C
1487128103.9,4630,11.88,74804.8,-1.13,-27.61,-27.83,0,*6E